Location: Arrington
(35.8681°N, 86.7092°W)
Time: 18:06:03
(UTC+00:00)

STARLINK 1013 - Pass Details

Date: 23 November 2019
Orbit: 348 x 351 km, 53.0° (Epoch: 14 December)

Event Time Altitude Azimuth Distance (km) Brightness Sun altitude
Exits shadow 09:59:12 - 108° (ESE) 1,453 6.7 -30.4°
Enters shadow 11:01:32 -59° 227° (SW) 11,292 10.3 -17.9°
Maximum altitude 11:32:59 52° 319° (NW) 437 2.8 -11.8°
